Flag for U.S.A. Weather past 2 weeks in Juneau, Alaska, U.S.A.

Now
34 °F

Light snow. Mostly cloudy.


Feels Like: 27 °F
Forecast: 34 / 39 °F
Wind: 8 mph from Northeast

Location: Juneau International Airport

Current Time: Dec 24, 2014 at 5:29:13 PM

Latest Report: Dec 24, 2014 at 4:53 PM


Visibility: 10 mi

Pressure: 29.90 "Hg

Humidity: 85%

Dew point: 30 °F

Location of JuneauLocation

Historic Weather in Juneau — Graph

°F

Juneau temperature yesterday

Maximum temperature yesterday: 40 °F (at 1:53 PM)
Minimum temperature yesterday: 25 °F (at 10:53 PM)
Average temperature yesterday: 31 °F

Past Weeks' High & Low Weather Summary

 TemperatureHumidityPressure
High46 °F (Dec 14, 9:53 PM)100% (Dec 9, 3:53 PM)30.11 "Hg (Dec 9, 3:53 PM)
Low23 °F (Dec 24, 7:53 AM)51% (Dec 23, 1:53 PM)28.82 "Hg (Dec 9, 3:53 PM)
Average36 °F90%29.51 "Hg
* Reported Dec 9 3:53 PM — Dec 24 3:53 PM, Juneau, Weather by CustomWeather, © 2014

Note: Actual official high and low records may vary slightly from our data, if they occured in-between our weather recording intervals... More about our weather records

Advertising

Juneau weather history for previous 24 hours

 ConditionsComfort  
Time TempWeatherWind HumidityBarometerVisibility
3:53 PM
Dec 24
34 °FLight snow. Mostly cloudy.8 mph79%29.90 "Hg8 mi
2:53 PM36 °FMostly cloudy.12 mph73%29.89 "Hg10 mi
1:53 PM34 °FMore clouds than sun.7 mph79%29.88 "Hg10 mi
12:53 PM34 °FOvercast.8 mph76%29.88 "Hg10 mi
11:53 AM31 °FPartly sunny.8 mph89%29.86 "Hg10 mi
10:53 AM28 °FPartly sunny.No wind93%29.86 "Hg10 mi
9:53 AM26 °FOvercast.No wind96%29.85 "Hg10 mi
8:53 AM23 °FScattered clouds.No wind92%29.83 "Hg10 mi
7:53 AM23 °FPassing clouds.No wind96%29.80 "Hg10 mi
6:53 AM24 °FPassing clouds.No wind91%29.78 "Hg10 mi
5:53 AM24 °FPassing clouds.No wind96%29.76 "Hg10 mi
4:53 AM25 °FPassing clouds.No wind92%29.74 "Hg10 mi
3:53 AM25 °FPassing clouds.No wind96%29.72 "Hg10 mi
2:53 AM26 °FPassing clouds.No wind92%29.70 "Hg10 mi
1:53 AM25 °FPassing clouds.No wind96%29.67 "Hg10 mi
12:53 AM26 °FPassing clouds.No wind92%29.65 "Hg10 mi
11:53 PM
Dec 23
25 °FPassing clouds.No wind92%29.63 "Hg10 mi
10:53 PM25 °FPassing clouds.No wind96%29.60 "Hg10 mi
9:53 PM27 °FPassing clouds.No wind92%29.58 "Hg10 mi
8:53 PM27 °FPassing clouds.No wind96%29.57 "Hg10 mi
7:53 PM27 °FPassing clouds.No wind96%29.55 "Hg10 mi
6:53 PM28 °FPassing clouds.No wind93%29.53 "Hg10 mi
5:53 PM29 °FPassing clouds.No wind93%29.52 "Hg10 mi
Weather by CustomWeather, © 2014

See weather overviewHow to use our weather pages